SL-16 DEB, 20627

Orbit data source: Space-Track

SL-16 DEB, 20627 is space debris in LEO originally from a launch on Tue, 22 May 1990 UTC launched from the Tyuratam Missile And Space Complex (TTMTR). Debris objects in space refer to the collection of defunct objects orbiting the Earth. Examples of debris include non-operational satellites, rocket bodies, and fragments generated from explosions, collisions, or faulty payload assembly.

Loading next visibility...
Identifier
20627, 1990-046D
Orbit
LEO
Country
Flag of CISCIS
Related business
Manufacturer
Yuzhnoe
Mission
Spacecraft
Bus & Motor
SEP MOTOR COVER, Unknown motor
Mass
~0 kg wet, ~1 kg dry
Launch date (UTC)
1990-05-22 (36 years ago)
Launch vehicle
Unknown
Launch site
Tyuratam Missile And Space Complex (TTMTR)
Object type
Payload
Rocket body
Debris
Shape & HBR
Unknown shape, 0.2 m
Radar Cross Section
Medium (>0.1 m² and <1 m²)

Expand to show TLE details & history
Last TLE update: 5 hours ago

TLE from 5 hours ago
0 SL-16 DEB
1 20627U 90046D   26165.86561521  .00000123  00000-0  15927-3 0  9993
2 20627  70.9739 233.7731 0214107 293.5693 187.0429 13.71000433803343
Epoch: 2026-06-14T20:46Z
TLE epoch observation values (Epoch: 2026-06-14T20:46:29.154Z)
Latitude
54.79969°
Longitude
169.88989°
Altitude
1,161.252 km
Speed
7.2 km/s
True Right ascension
01h 38m 41s
True Declination
54° 38' 46"
Sunlit
Object was in daylight at epoch
Visualization orbit readout
Latitude
Unknown
Longitude
Unknown
Altitude
Unknown
Speed
Unknown
Apparent Right ascension
Unknown
Apparent Declination
Unknown
Sunlit
N/A
Visualization observer readout
Local Sidereal Time
12:47:47
Azimuth
Unknown
Elevation
Unknown
Doppler factor
Unknown
Orbital elements
Apogee altitude
1,151.792 km
Perigee altitude
836.109 km
Semi-major axis
7,372.088 km
Eccentricity
0.02141
Inclination
70.9739°
RAAN
233.7731°
Arg. of periapsis
293.5693°
True anomaly
186.74986°
Mean anomaly
187.0429°
Eccentric anomaly
186.89562°
Mean motion
3.42892 °/min
Orbital period
104.99 mins
BSTAR
0.00015927
Loading maneuver chart data...
Computing Atmospheric mass density...
Loading historical data...
Loading historical data...
Loading historical data...
Loading historical data...
Loading historical data...
Loading historical data...
Loading historical data...
Other satellites on launch #46 in the year 1990 (1990-05-22 UTC)

Documentation

Showing up to 5 results
|